Regional Weather Roundup
Issued by NWS

Home | Current Version | Previous Version | Text Only | Print | Product List | Glossary Off
Versions: 1 2 3 4 5 6 7 8 9 10 11 12 13 14 15 16 17 18 19 20 21 22 23 24 25 26 27 28 29 30 31 32 33 34 35 36 37 38 39 40 41 42 43 44 45 46 47 48 49 50

367
ASUS45 KSLC 240110
RWRUT

UTAH REGIONAL WEATHER ROUNDUP
NATIONAL WEATHER SERVICE SALT LAKE CITY UT
700 PM MDT THU MAR 23 2017

UTZ001>011-023>025-240200-

NORTHERN UTAH

CITY           SKY/WX    TMP DP  RH WIND       PRES   REMARKS
BRIGHAM CITY     N/A     46  39  77 S6        29.97S
HILL AFB       MOCLDY    39  37  95 S6        29.97S FOG     WCI  34
LOGAN          MOCLDY    50  36  58 S3        29.95R
OGDEN          CLOUDY    40  38  93 S8        29.97R WCI  34
SALT LAKE CITY CLOUDY    42  37  82 S5        29.98S
WENDOVER       CLEAR     54  20  26 NW22      29.98R
HEBER CITY     CLOUDY    43  32  65 CALM      29.94R

$$

UTZ011>015-024>027-240200-

CENTRAL/NORTHEAST UTAH

CITY           SKY/WX    TMP DP  RH WIND       PRES   REMARKS
PROVO AIRPORT  CLOUDY    43  37  81 NW20      29.99R
MOAB/CANYONLAN MOCLDY    49  37  63 NW26      29.76S
DELTA          CLOUDY    34  34 100 S9        30.01R WCI  26
PRICE          MOCLDY    43  31  62 NW16G26   29.85R
RICHFIELD      MOCLDY    41  34  75 S13       30.00R
ROOSEVELT      CLOUDY    50  34  53 N15       29.82R
VERNAL         CLOUDY    48  33  56 N15G24    29.81R

$$

UTZ013>016-019>022-027-240200-

SOUTHERN UTAH

CITY           SKY/WX    TMP DP  RH WIND       PRES   REMARKS
BRYCE CANYON   LGT SNOW  32  26  78 NW25G36   29.93R WCI  19
CEDAR CITY     CLOUDY    40  33  76 NE14      30.02S WCI  32
MILFORD        MOCLDY   N/A N/A N/A NE7       30.01S
ST GEORGE      CLOUDY    55  39  54 CALM      29.99R
HANKSVILLE     CLOUDY    52  32  46 NW14      29.84R
KANAB          CLEAR     50  28  43 NW15G25   29.99R
BLANDING       CLOUDY    47  28  46 W10       29.86S

$$

REGIONAL REPORTS     COLORADO/ARIZONA

CITY           SKY/WX    TMP DP  RH WIND       PRES   REMARKS
CRAIG, CO      CLOUDY    51  30  44 W14       29.77R
GRAND JUNCTION CLOUDY    49  40  71 E5        29.75S
RIFLE, CO      CLOUDY    51  33  50 SE10      29.73R
MONTROSE, CO   CLOUDY    45  37  73 SE9       29.78R
CORTEZ, CO     LGT RAIN  40  36  86 W9        29.82R FOG     WCI  34
COLORADO CITY    N/A     48  32  53 NW23G31   30.01R
PAGE, AZ       CLOUDY    53  32  44 W13G21    29.85S
GRAND CANYON   FLURRIES  34  33  96 NW8       30.00R WCI  27
KINGMAN, AZ    MOCLDY    59  22  24 N9        30.02R
FLAGSTAFF, AZ  CLOUDY    33  30  88 SW12G20   30.00R WCI  24

$$

REGIONAL REPORTS    NEVADA/IDAHO/WYOMING

CITY           SKY/WX    TMP DP  RH WIND       PRES   REMARKS
LAS VEGAS, NV  MOSUNNY   71  22  15 SW6       29.92S
ELY, NY        CLEAR     45  22  40 NW16      30.03R
ELKO, NV       MOSUNNY   48  25  40 SW9       30.05R
POCATELLO, ID  PTCLDY    50  33  52 W23       29.94R
BURLEY, ID     CLEAR     48  19  31 W16G25    29.98R
FORT BRIDGER,  LGT RAIN  36  36 100 NW14      29.95R WCI  27
EVANSTON, WY   CLOUDY    34  30  85 W9        29.94R WCI  27
ROCK SPRINGS,  LGT RAIN  38  34  85 E17       29.86R WCI  28
KEMMERER, WY   FLURRIES  34  32  93 NW16G22   29.92R WCI  23

$$




USA.gov is the U.S. government's official web portal to all federal, state and local government web resources and services.